User: anonymous   Login
Location: G?julap?du
(16.5372°N, 81.0979°E)
Time: 23:12:11
(UTC+00:00)
Language:

Cosmos 1655 Rocket - Orbit

View from above orbital plane
View from above orbital plane
View from above satellite
View from above satellite

Ground track
Ground track

The orbit is defined by the following mean orbital elements,

1 15752U          26159.40654911 +.00000000 +00000-0 +35731-4 0 00009
2 15752  82.9511  48.1201 0024389  15.4510 344.7384 13.73360606    04
Epoch (UTC): 08 June 2026 09:45:25
Eccentricity: 0.0024389
inclination: 82.9511°
perigee height: 970 km
apogee height: 1005 km
right ascension of ascending node: 48.1201°
argument of perigee: 15.4510°
revolutions per day: 13.73360606
mean anomaly at epoch: 344.7384°

The dashed part of the orbit path shows where the satellite is in the earth's shadow,  

DLR